This demonstration page uses our WeatherBlox Daily Observations layout. Learn more.

Left ArrowRight Arrow

44.8408, -93.29828

Hourly Observations for September 7, 2019

Temp ( °F °C ) Dew Point ( °F °C ) Humidity (%) Winds ( mph kmh ) Pressure ( in mb ) Visibility ( mi km ) Precip ( " mm )
12:53 am 00:53 Clear 64 17.8 54 12.2 70 70 NNW 3 6 30.09 1019 10 16 0.00 0.00
1:53 am 01:53 Clear 62 16.7 53 11.7 73 73 WNW 3 6 30.09 1019 10 16 0.00 0.00
2:53 am 02:53 Clear 61 16.1 55 12.8 81 81 WNW 6 9 30.09 1019 10 16 0.00 0.00
3:53 am 03:53 Clear 57 13.9 54 12.2 90 90 NW 7 11 30.09 1019 10 16 0.00 0.00
4:53 am 04:53 Clear 57 13.9 53 11.7 87 87 NW 6 9 30.10 1019 10 16 0.00 0.00
5:53 am 05:53 Mostly Clear 56 13.3 53 11.7 90 90 NW 5 7 30.09 1019 10 16 0.00 0.00
6:53 am 06:53 Partly Cloudy 56 13.3 53 11.7 90 90 Calm 30.10 1019 10 16 0.00 0.00
7:53 am 07:53 Mostly Cloudy 58 14.4 53 11.7 84 84 Calm 30.09 1019 10 16 0.00 0.00
8:53 am 08:53 Cloudy 61 16.1 54 12.2 78 78 VRB 3 6 30.09 1019 10 16 0.00 0.00
9:53 am 09:53 Cloudy 62 16.7 54 12.2 75 75 VRB 3 6 30.08 1019 10 16 0.00 0.00
10:53 am 10:53 Cloudy 64 17.8 54 12.2 70 70 NW 3 6 30.10 1019 10 16 0.00 0.00
11:53 am 11:53 Cloudy 66 18.9 53 11.7 63 63 NNW 5 7 30.10 1019 10 16 0.00 0.00
12:53 pm 12:53 Cloudy 66 18.9 51 10.6 59 59 WNW 3 6 30.10 1019 10 16 0.00 0.00
1:53 pm 13:53 Cloudy 66 18.9 53 11.7 63 63 NW 5 7 30.10 1019 10 16 0.00 0.00
2:53 pm 14:53 Cloudy 65 18.3 54 12.2 68 68 NNE 7 11 30.09 1019 10 16 0.00 0.00
3:53 pm 15:53 Cloudy 64 17.8 54 12.2 70 70 N 10 17 30.09 1019 10 16 0.00 0.00
4:53 pm 16:53 Cloudy 63 17.2 52 11.1 68 68 NNE 10 17 30.08 1019 10 16 0.00 0.00
5:53 pm 17:53 Cloudy 61 16.1 53 11.7 75 75 NNE 8 13 30.08 1019 10 16 0.00 0.00
6:53 pm 18:53 Cloudy 61 16.1 50 10 67 67 NE 5 7 30.09 1019 10 16 0.00 0.00
7:53 pm 19:53 Cloudy 61 16.1 52 11.1 72 72 NE 7 11 30.09 1019 10 16 0.00 0.00
8:53 pm 20:53 Cloudy 60 15.6 54 12.2 80 80 NE 10 17 30.10 1019 10 16 0.00 0.00
9:53 pm 21:53 Cloudy with Light Rain 60 15.6 54 12.2 80 80 NE 7 11 30.11 1020 10 16 0.00 0.00
10:53 pm 22:53 Cloudy 59 15 52 11.1 78 78 ENE 12 19 30.11 1020 10 16 0.00 0.00
11:53 pm 23:53 Cloudy 58 14.4 50 10 75 75 ENE 9 15 30.11 1020 10 16 0.00 0.00

Powered by AerisWeather